N5JLR-2 Weather Reports


Display with metric or nautical units.
time (UTC)temp
F
wind
direction
speed
MPH
gust
MPH
rain 1hr
in
rain 24hr
in
rain mn
in
humidity
%
barometer
mb
20260507083028 80 74 1.0 4.0 0.00 0.00 0.00 94 1010.3
20260507081528 80 94 2.0 4.0 0.00 0.00 0.00 94 1010.5
20260507080037 80 97 0.0 3.0 0.00 0.00 0.00 94 1010.9
20260507074530 80 90 2.0 6.0 0.00 0.00 0.00 93 1010.6
20260507073026 80 117 1.0 4.0 0.00 0.00 0.00 93 1010.7
20260507071557 80 110 2.0 6.0 0.00 0.00 0.00 93 1010.8
20260507070032 80 101 4.0 8.0 0.00 0.00 0.00 94 1010.6
20260507064527 80 86 2.0 6.0 0.00 0.00 0.00 94 1010.4
20260507063032 80 122 1.0 8.0 0.00 0.00 0.00 94 1010.6
20260507061529 80 89 2.0 8.0 0.00 0.00 0.00 94 1010.6
20260507060035 80 112 1.0 4.0 0.00 0.00 0.00 94 1010.6
20260507054528 80 0 2.0 7.0 0.00 0.00 0.00 94 1010.8
20260507053044 80 0 2.0 8.0 0.00 0.00 0.00 94 1010.8
20260507051539 80 109 3.0 7.0 0.00 0.00 0.00 94 1010.7
20260507050034 80 101 3.0 8.0 0.00 0.00 0.00 94 1010.7
20260507044530 80 111 2.0 7.0 0.00 0.00 0.00 94 1010.7
20260507043028 80 67 3.0 8.0 0.00 0.00 0.00 94 1010.2
20260507041529 80 109 3.0 8.0 0.00 0.00 0.00 94 1010.3
20260507040030 80 87 4.0 9.0 0.00 0.00 0.00 94 1010.2
20260507034535 80 104 2.0 8.0 0.00 0.00 0.00 94 1010.0
20260507033039 80 107 3.0 8.0 0.00 0.00 0.00 94 1009.7
20260507031530 80 144 5.0 10.0 0.00 0.00 0.00 93 1009.5
20260507030029 80 93 3.0 10.0 0.00 0.00 0.00 93 1009.1
20260507024533 81 86 5.0 9.0 0.00 0.00 0.00 93 1009.0
20260507023033 81 96 6.0 12.0 0.00 0.00 0.00 93 1008.8
20260507021532 81 105 3.0 9.0 0.00 0.00 0.00 93 1008.8
20260507020029 81 98 4.0 14.0 0.00 0.00 0.00 93 1008.5
20260507014528 81 90 6.0 13.0 0.00 0.00 0.00 92 1008.3
20260507013029 81 132 6.0 14.0 0.00 0.00 0.00 92 1007.9
20260507011537 81 76 8.0 15.0 0.00 0.00 0.00 91 1007.7
20260507010028 82 93 6.0 17.0 0.00 0.00 0.00 90 1007.5
20260507004536 82 92 8.0 13.0 0.00 0.00 0.00 89 1007.2
20260507003030 83 103 6.0 15.0 0.00 0.00 0.00 87 1007.1
20260507001528 84 103 6.0 15.0 0.00 0.00 0.00 86 1007.0
20260507000029 85 78 7.0 15.0 0.00 0.00 0.00 85 1006.9
20260506234530 85 108 7.0 15.0 0.00 0.00 0.00 84 1006.7
20260506233030 86 78 9.0 17.0 0.00 0.00 0.00 83 1006.6
20260506231530 86 115 8.0 19.0 0.00 0.00 0.00 83 1006.3
20260506230027 88 111 10.0 20.0 0.00 0.00 0.00 81 1006.0
20260506224530 90 92 10.0 17.0 0.00 0.00 0.00 77 1005.9
20260506223028 90 99 10.0 17.0 0.00 0.00 0.00 77 1005.8
20260506221530 91 139 7.0 16.0 0.00 0.00 0.00 74 1005.9
20260506220037 92 77 9.0 17.0 0.00 0.00 0.00 72 1005.9
20260506214528 93 156 7.0 14.0 0.00 0.00 0.00 69 1005.8
20260506213032 94 188 5.0 12.0 0.00 0.00 0.00 66 1005.9
20260506211532 93 176 6.0 14.0 0.00 0.00 0.00 68 1005.8
20260506210032 93 177 8.0 18.0 0.00 0.00 0.00 69 1005.9
20260506204530 93 159 7.0 15.0 0.00 0.00 0.00 69 1006.1
20260506203029 92 166 7.0 17.0 0.00 0.00 0.00 70 1006.5
20260506201530 92 184 5.0 13.0 0.00 0.00 0.00 71 1006.8
20260506200030 91 159 8.0 15.0 0.00 0.00 0.00 72 1006.9
20260506194528 91 199 8.0 17.0 0.00 0.00 0.00 73 1007.2
20260506193028 91 120 7.0 19.0 0.00 0.00 0.00 73 1007.2
20260506191528 91 148 9.0 19.0 0.00 0.00 0.00 72 1007.3
20260506190030 91 157 7.0 17.0 0.00 0.00 0.00 74 1007.4
20260506184529 90 186 10.0 17.0 0.00 0.00 0.00 75 1007.5
20260506183030 90 202 9.0 25.0 0.00 0.00 0.00 76 1007.6
20260506181528 89 140 7.0 20.0 0.00 0.00 0.00 77 1007.9
20260506180030 88 177 10.0 19.0 0.00 0.00 0.00 79 1008.0
20260506174529 87 162 9.0 21.0 0.00 0.00 0.00 79 1008.2
20260506173028 86 149 8.0 19.0 0.00 0.00 0.00 81 1008.3
20260506171528 86 143 6.0 16.0 0.00 0.00 0.00 81 1008.5
20260506170028 86 155 8.0 17.0 0.00 0.00 0.00 81 1008.4
20260506164530 86 175 9.0 18.0 0.00 0.00 0.00 81 1008.5
20260506163032 85 117 8.0 18.0 0.00 0.00 0.00 82 1008.5
20260506161526 85 157 8.0 18.0 0.00 0.00 0.00 82 1008.4
20260506160028 84 166 5.0 12.0 0.00 0.00 0.00 85 1008.2
20260506154532 84 157 7.0 15.0 0.00 0.00 0.00 86 1008.2
20260506153029 83 177 6.0 13.0 0.00 0.00 0.00 87 1008.2
20260506151529 82 148 4.0 12.0 0.00 0.00 0.00 89 1008.2
20260506150027 81 144 6.0 10.0 0.00 0.00 0.00 89 1008.5
20260506144534 81 146 4.0 9.0 0.00 0.00 0.00 89 1008.7
20260506143031 81 162 6.0 11.0 0.00 0.00 0.00 90 1008.7
20260506141535 81 182 3.0 9.0 0.00 0.00 0.00 91 1008.8
20260506140030 80 163 4.0 9.0 0.00 0.00 0.00 91 1008.8
20260506134527 80 169 4.0 8.0 0.00 0.00 0.00 92 1008.7
20260506133028 79 198 5.0 11.0 0.00 0.00 0.00 92 1008.7
20260506131528 79 190 5.0 10.0 0.00 0.00 0.00 92 1008.4
20260506130030 79 165 4.0 11.0 0.00 0.00 0.00 93 1008.2
20260506124529 79 150 3.0 13.0 0.00 0.00 0.00 93 1007.7
20260506123029 79 144 4.0 10.0 0.00 0.00 0.00 94 1007.6
20260506121529 78 149 5.0 11.0 0.00 0.00 0.00 94 1007.4
20260506120031 78 131 6.0 15.0 0.00 0.00 0.00 94 1006.9
20260506114527 78 165 8.0 15.0 0.00 0.00 0.00 95 1006.7
20260506113030 78 127 6.0 16.0 0.00 0.00 0.00 95 1006.5
20260506111527 78 162 7.0 15.0 0.00 0.00 0.00 95 1006.2
20260506110027 78 126 8.0 15.0 0.00 0.00 0.00 95 1006.0
20260506104529 78 129 7.0 14.0 0.00 0.00 0.00 94 1005.9
20260506103030 78 130 8.0 16.0 0.00 0.00 0.00 94 1006.0
20260506101528 78 139 6.0 16.0 0.00 0.00 0.00 94 1006.0
20260506100027 78 134 8.0 15.0 0.00 0.00 0.00 94 1006.1
20260506094529 78 144 8.0 17.0 0.00 0.00 0.00 95 1005.8
20260506093033 78 167 7.0 15.0 0.00 0.00 0.00 95 1006.0
20260506091528 78 160 6.0 15.0 0.00 0.00 0.00 95 1006.2
20260506090028 77 151 6.0 12.0 0.00 0.00 0.00 95 1006.2
20260506084534 77 140 6.0 12.0 0.00 0.00 0.00 95 1006.3